Location: Basses Si�yes
(44.0835°N, 6.2037°E)
Time: 22:25:25
(UTC+00:00)

Cosmos 468 Rocket - Pass Details

Date: 27 February 2020
Orbit: 744 x 780 km, 74.0° (Epoch: 05 April)

Event Time Altitude Azimuth Distance (km) Brightness Sun altitude
Rises 18:38:47 0° 201° (SSW) 3,232 7.5 -14.9°
Reaches altitude 10° 18:41:09 10° 202° (SSW) 2,314 6.7 -15.3°
Maximum altitude 18:46:25 83° 290° (WNW) 789 4.1 -16.3°
Drops below altitude 10° 18:51:46 10° 19° (NNE) 2,342 6.4 -17.2°
Sets 18:54:10 0° 21° (NNE) 3,274 7.1 -17.7°
